FLOCK 4A-18 (44089 NORAD) Tracking and Keplerian Element Data

This shows tracking and keplerian element data for the satellite.

Feedback or suggestion? Click here.




ElementValue
Catalog44089
NameFLOCK 4A-18
Epoch Orbit435
Epoch Day119.94667455
Epoch Year2019
RAAN180.2599
Inclination97.4616
Eccentricity0.0014202
Argument of Perigee177.7549
Mean Anonmoly182.3753
Mean Motion15.21523085
Decay Rate5.48E-06
L11 44089U 19018M 19119.94667455 .00000548 00000-0 27411-4 0 9997
L22 44089 97.4616 180.2599 0014202 177.7549 182.3753 15.21523085 4356

Live tracking and technical data element details for FLOCK 4A-18 (NORAD 44089). FLOCK 4A-18 can be tracked NOW for your location showing map with azimuth and elevation plus other details from your city location.

Track the satellite on the map from your city or location and see movement details for azimuth, elevation, latitude, longitude, range, height, and movement on the map or in text.







IsCatalogInMostPopularTable: catalog: 44089, numindb: 24
Update: records affected: 1



GetName: 44089 FLOCK 4A-18

Hit Count: updated at: Mon, 15 Jul 2019 23:01:04 GMT